SP1JT-10 Weather Reports


time (UTC)temp
C
wind
direction
speed
KPH
gust
KPH
rain 1hr
cm
rain 24hr
cm
rain mn
cm
humidity
%
barometer
mb
20260504222913 10 0.0 0.0 0.00 0.00 0.00 80 1014.0
20260504221914 10 0.0 0.0 0.00 0.00 0.00 80 1014.0
20260504220913 10 0.0 0.0 0.00 0.00 0.00 80 1014.0
20260504215913 10 0.0 0.0 0.00 0.00 0.00 78 1014.2
20260504214914 10 0.0 0.0 0.00 0.00 0.00 78 1014.2
20260504213915 10 0.0 0.0 0.00 0.00 0.00 76 1014.3
20260504212914 11 0.0 0.0 0.00 0.00 0.00 76 1014.4
20260504211912 11 0.0 0.0 0.00 0.00 0.00 75 1014.2
20260504210912 11 0.0 0.0 0.00 0.00 0.00 75 1014.2
20260504205913 11 0.0 0.0 0.00 0.00 0.00 74 1014.2
20260504204913 11 0.0 0.0 0.00 0.00 0.00 73 1014.4
20260504203913 11 0.0 0.0 0.00 0.00 0.00 73 1014.4
20260504202913 11 0.0 0.0 0.00 0.00 0.00 71 1014.4
20260504201913 12 0.0 0.0 0.00 0.00 0.00 70 1014.5
20260504195913 12 0.0 0.0 0.00 0.00 0.00 68 1014.4
20260504195813 12 0.0 0.0 0.00 0.00 0.00 68 1014.5
20260504195714 12 0.0 0.0 0.00 0.00 0.00 69 1014.5
20260504195615 12 0.0 0.0 0.00 0.00 0.00 68 1014.5
20260504193608 13 0.0 0.0 0.00 0.00 0.00 65 1014.4
20260504191353 14 0.0 0.0 0.00 0.00 0.00 62 1014.2
20260504184913 14 0.0 0.0 0.00 0.00 0.00 62 1014.0
20260504182912 15 0.0 0.0 0.00 0.00 0.00 61 1013.7
20260504181914 15 0.0 0.0 0.00 0.00 0.00 61 1013.7
20260504180914 15 0.0 0.0 0.00 0.00 0.00 60 1013.8
20260504175913 16 0.0 0.0 0.00 0.00 0.00 59 1013.6
20260504175814 16 0.0 0.0 0.00 0.00 0.00 60 1013.6
20260504175713 16 0.0 0.0 0.00 0.00 0.00 60 1013.6
20260504175613 16 0.0 0.0 0.00 0.00 0.00 60 1013.6
20260504175514 16 0.0 0.0 0.00 0.00 0.00 59 1013.6
20260504175412 16 0.0 0.0 0.00 0.00 0.00 59 1013.7
20260504175214 16 0.0 0.0 0.00 0.00 0.00 59 1013.6
20260504175115 16 0.0 0.0 0.00 0.00 0.00 60 1013.6
20260504174115 16 0.0 0.0 0.00 0.00 0.00 58 1013.5
20260504173116 17 0.0 0.0 0.00 0.00 0.00 56 1013.2
20260504172121 19 0.0 0.0 0.00 0.00 0.00 52 1013.0
20260504081014 15 0.0 0.0 0.00 0.00 0.00 66 1013.2
20260504045914 13 0.0 0.0 0.00 0.00 0.00 61 1012.2
20260504043914 13 0.0 0.0 0.00 0.00 0.00 63 1012.2
20260504042917 13 0.0 0.0 0.00 0.00 0.00 63 1011.9
20260504041914 13 0.0 0.0 0.00 0.00 0.00 62 1011.8
20260504040913 13 0.0 0.0 0.00 0.00 0.00 63 1011.9
20260504035915 13 0.0 0.0 0.00 0.00 0.00 63 1011.7
20260504034915 13 0.0 0.0 0.00 0.00 0.00 63 1011.9
20260504033915 13 0.0 0.0 0.00 0.00 0.00 64 1011.8
20260504032915 13 0.0 0.0 0.00 0.00 0.00 64 1011.7
20260504031914 13 0.0 0.0 0.00 0.00 0.00 64 1011.7
20260504030913 13 0.0 0.0 0.00 0.00 0.00 63 1011.5
20260504024913 13 0.0 0.0 0.00 0.00 0.00 63 1011.3
20260504022914 12 0.0 0.0 0.00 0.00 0.00 63 1011.3
20260504021914 13 0.0 0.0 0.00 0.00 0.00 64 1011.2
20260504020913 13 0.0 0.0 0.00 0.00 0.00 63 1011.2
20260504015912 13 0.0 0.0 0.00 0.00 0.00 63 1011.2
20260504013914 13 0.0 0.0 0.00 0.00 0.00 62 1011.1
20260504012913 13 0.0 0.0 0.00 0.00 0.00 60 1011.1
20260504011913 13 0.0 0.0 0.00 0.00 0.00 59 1011.0
20260504004913 13 0.0 0.0 0.00 0.00 0.00 57 1010.9
20260504003915 14 0.0 0.0 0.00 0.00 0.00 57 1010.9
20260504002913 14 0.0 0.0 0.00 0.00 0.00 55 1011.0
20260504001915 14 0.0 0.0 0.00 0.00 0.00 55 1011.0
20260504000915 14 0.0 0.0 0.00 0.00 0.00 55 1011.0
20260503235915 14 0.0 0.0 0.00 0.00 0.00 55 1011.0
20260503234914 14 0.0 0.0 0.00 0.00 0.00 56 1010.9
20260503233912 13 0.0 0.0 0.00 0.00 0.00 56 1011.0
20260503232912 13 0.0 0.0 0.00 0.00 0.00 57 1010.9
20260503231914 13 0.0 0.0 0.00 0.00 0.00 57 1010.9
20260503230915 13 0.0 0.0 0.00 0.00 0.00 57 1010.9
20260503225913 13 0.0 0.0 0.00 0.00 0.00 58 1010.9
20260503224914 13 0.0 0.0 0.00 0.00 0.00 57 1011.1
20260503223916 13 0.0 0.0 0.00 0.00 0.00 58 1011.2